Location: Unspecified
(0.0000°N, 0.0000°E)
Time: 06:36:36
(UTC+00:00)

Vanguard 2 - Pass Details

Date: 18 December 2018
Orbit: 553 x 2939 km, 32.9° (Epoch: 16 June)

Event Time Altitude Azimuth Distance (km) Brightness Sun altitude
Rises 09:29:52 0° 226° (SW) 6,602 12.2 47.4°
Reaches altitude 10° 09:39:52 10° 197° (SSW) 5,073 12.0 49.4°
Maximum altitude 09:43:44 11° 181° (S) 4,682 12.0 50.2°
Drops below altitude 10° 09:47:13 10° 165° (SSE) 4,510 12.1 50.9°
Sets 09:54:13 0° 133° (SE) 4,839 12.2 52.2°
